TimeCST,TemperatureF,Dew PointF,Humidity,Sea Level PressureIn,VisibilityMPH,Wind Direction,Wind SpeedMPH,Gust SpeedMPH,PrecipitationIn,Events,Conditions,WindDirDegrees,DateUTC
12:15 AM,5.0,1.4,85,30.47,2.0,North,16.1,23.0,N/A,Snow,Light Snow,360,2014-03-03 06:15:00
12:35 AM,5.0,1.4,85,30.48,1.2,North,16.1,23.0,N/A,Snow,Light Snow,360,2014-03-03 06:35:00
12:55 AM,5.0,1.4,85,30.49,1.2,North,16.1,-,N/A,Snow,Light Snow,360,2014-03-03 06:55:00
1:15 AM,5.0,1.4,85,30.49,1.5,North,16.1,-,N/A,Snow,Light Snow,360,2014-03-03 07:15:00
1:35 AM,5.0,-0.4,78,30.50,2.0,North,15.0,19.6,N/A,Snow,Light Snow,360,2014-03-03 07:35:00
1:55 AM,5.0,-0.4,78,30.51,2.5,North,17.3,-,N/A,Snow,Light Snow,360,2014-03-03 07:55:00
2:15 AM,5.0,1.4,85,30.51,1.8,North,17.3,-,N/A,Snow,Light Snow,360,2014-03-03 08:15:00
2:35 AM,5.0,1.4,85,30.51,2.0,North,12.7,-,N/A,Snow,Light Snow,10,2014-03-03 08:35:00
2:55 AM,5.0,1.4,85,30.52,4.0,North,11.5,-,N/A,Snow,Light Snow,360,2014-03-03 08:55:00
3:15 AM,5.0,-0.4,78,30.51,7.0,North,13.8,-,N/A,,Overcast,10,2014-03-03 09:15:00
3:35 AM,5.0,-4.0,66,30.50,10.0,North,11.5,-,N/A,,Mostly Cloudy,10,2014-03-03 09:35:00
3:55 AM,5.0,-5.8,61,30.49,10.0,NNE,13.8,-,N/A,,Clear,20,2014-03-03 09:55:00
4:15 AM,5.0,-5.8,61,30.51,10.0,North,11.5,-,N/A,,Clear,10,2014-03-03 10:15:00
4:35 AM,5.0,-7.6,56,30.50,10.0,North,12.7,-,N/A,,Clear,10,2014-03-03 10:35:00
4:55 AM,5.0,-7.6,56,30.51,10.0,North,12.7,-,N/A,,Clear,10,2014-03-03 10:55:00
5:15 AM,3.2,-7.6,61,30.50,10.0,North,11.5,-,N/A,,Clear,10,2014-03-03 11:15:00
5:35 AM,3.2,-7.6,61,30.51,10.0,North,10.4,-,N/A,,Clear,360,2014-03-03 11:35:00
5:55 AM,3.2,-7.6,61,30.50,10.0,North,9.2,-,N/A,,Clear,10,2014-03-03 11:55:00
6:15 AM,1.4,-7.6,66,30.50,10.0,North,8.1,-,N/A,,Clear,360,2014-03-03 12:15:00
6:35 AM,1.4,-7.6,66,30.50,10.0,North,10.4,-,N/A,,Clear,360,2014-03-03 12:35:00
6:55 AM,1.4,-7.6,66,30.50,10.0,North,9.2,-,N/A,,Clear,360,2014-03-03 12:55:00
7:15 AM,1.4,-7.6,66,30.49,10.0,North,10.4,-,N/A,,Clear,10,2014-03-03 13:15:00
7:35 AM,1.4,-7.6,66,30.50,10.0,North,8.1,-,N/A,,Clear,10,2014-03-03 13:35:00
7:55 AM,3.2,-7.6,61,30.51,10.0,North,8.1,-,N/A,,Clear,360,2014-03-03 13:55:00
8:15 AM,3.2,-7.6,61,30.52,10.0,North,9.2,-,N/A,,Clear,360,2014-03-03 14:15:00
8:35 AM,5.0,-7.6,56,30.54,10.0,North,11.5,-,N/A,,Clear,360,2014-03-03 14:35:00
8:55 AM,5.0,-7.6,56,30.55,10.0,North,11.5,-,N/A,,Clear,360,2014-03-03 14:55:00
9:15 AM,5.0,-5.8,61,30.54,10.0,North,11.5,-,N/A,,Clear,10,2014-03-03 15:15:00
9:35 AM,5.0,-5.8,61,30.54,10.0,North,11.5,-,N/A,,Clear,10,2014-03-03 15:35:00
9:55 AM,6.8,-5.8,56,30.54,10.0,North,9.2,-,N/A,,Clear,360,2014-03-03 15:55:00
10:15 AM,8.6,-5.8,52,30.55,10.0,North,8.1,-,N/A,,Clear,360,2014-03-03 16:15:00
10:35 AM,8.6,-5.8,52,30.55,10.0,North,5.8,-,N/A,,Clear,10,2014-03-03 16:35:00
10:55 AM,10.4,-5.8,48,30.55,10.0,North,5.8,-,N/A,,Clear,10,2014-03-03 16:55:00
11:15 AM,10.4,-5.8,48,30.55,10.0,North,3.5,-,N/A,,Clear,360,2014-03-03 17:15:00
11:35 AM,12.2,-2.2,53,30.55,10.0,WNW,8.1,-,N/A,,Clear,300,2014-03-03 17:35:00
11:55 AM,12.2,-0.4,57,30.55,10.0,WNW,6.9,-,N/A,,Clear,300,2014-03-03 17:55:00
12:15 PM,12.2,-4.0,48,30.52,10.0,NNW,3.5,-,N/A,,Clear,330,2014-03-03 18:15:00
12:35 PM,14.0,-0.4,53,30.48,10.0,NE,8.1,-,N/A,,Clear,50,2014-03-03 18:35:00
12:55 PM,14.0,-0.4,53,30.46,10.0,NE,4.6,-,N/A,,Clear,50,2014-03-03 18:55:00
1:15 PM,15.8,-4.0,41,30.46,10.0,ENE,5.8,-,N/A,,Clear,60,2014-03-03 19:15:00
1:35 PM,15.8,-4.0,41,30.45,10.0,Calm,Calm,-,N/A,,Clear,0,2014-03-03 19:35:00
1:55 PM,17.6,-2.2,42,30.44,10.0,North,4.6,-,N/A,,Clear,360,2014-03-03 19:55:00
2:15 PM,17.6,-2.2,42,30.43,10.0,North,5.8,-,N/A,,Clear,360,2014-03-03 20:15:00
2:35 PM,19.4,-0.4,42,30.43,10.0,NNE,4.6,-,N/A,,Clear,20,2014-03-03 20:35:00
2:50 PM,19.4,1.4,46,30.41,10.0,NNE,5.8,-,N/A,,Clear,30,2014-03-03 20:50:00
3:15 PM,19.4,-0.4,42,30.39,10.0,ENE,3.5,-,N/A,,Clear,60,2014-03-03 21:15:00
3:35 PM,19.4,1.4,46,30.40,10.0,Calm,Calm,-,N/A,,Clear,0,2014-03-03 21:35:00
3:55 PM,19.4,-0.4,42,30.38,10.0,Calm,Calm,-,N/A,,Clear,0,2014-03-03 21:55:00
4:15 PM,19.4,1.4,46,30.38,10.0,Calm,Calm,-,N/A,,Clear,0,2014-03-03 22:15:00
4:35 PM,19.4,1.4,46,30.39,10.0,Calm,Calm,-,N/A,,Clear,0,2014-03-03 22:35:00
4:55 PM,21.2,1.4,42,30.37,10.0,ESE,5.8,-,N/A,,Clear,110,2014-03-03 22:55:00
5:15 PM,21.2,3.2,46,30.36,10.0,East,4.6,-,N/A,,Clear,90,2014-03-03 23:15:00
5:35 PM,21.2,5.0,50,30.36,10.0,SE,6.9,-,N/A,,Clear,130,2014-03-03 23:35:00
5:55 PM,19.4,5.0,54,30.34,10.0,East,8.1,-,N/A,,Clear,100,2014-03-03 23:55:00
6:15 PM,19.4,5.0,54,30.35,10.0,ESE,6.9,-,N/A,,Clear,110,2014-03-04 00:15:00
6:35 PM,17.6,5.0,58,30.35,10.0,ESE,5.8,-,N/A,,Clear,120,2014-03-04 00:35:00
6:55 PM,15.8,6.8,68,30.35,10.0,SE,4.6,-,N/A,,Clear,140,2014-03-04 00:55:00
7:15 PM,15.8,5.0,62,30.34,10.0,ESE,4.6,-,N/A,,Clear,120,2014-03-04 01:15:00
7:30 PM,15.8,3.2,58,30.35,10.0,Calm,Calm,-,N/A,,Clear,0,2014-03-04 01:30:00
7:55 PM,15.8,3.2,58,30.35,10.0,SE,5.8,-,N/A,,Clear,140,2014-03-04 01:55:00
8:15 PM,14.0,5.0,67,30.35,10.0,SSE,5.8,-,N/A,,Clear,150,2014-03-04 02:15:00
8:35 PM,14.0,5.0,67,30.34,10.0,SSE,5.8,-,N/A,,Clear,150,2014-03-04 02:35:00
8:55 PM,14.0,3.2,62,30.34,10.0,SSE,3.5,-,N/A,,Clear,160,2014-03-04 02:55:00
9:15 PM,14.0,3.2,62,30.34,10.0,Calm,Calm,-,N/A,,Clear,0,2014-03-04 03:15:00
9:35 PM,14.0,3.2,62,30.35,10.0,SSW,3.5,-,N/A,,Clear,200,2014-03-04 03:35:00
9:55 PM,12.2,5.0,73,30.35,10.0,Calm,Calm,-,N/A,,Clear,0,2014-03-04 03:55:00
10:15 PM,12.2,3.2,67,30.35,10.0,SSW,4.6,-,N/A,,Clear,210,2014-03-04 04:15:00
10:35 PM,12.2,3.2,67,30.34,10.0,South,4.6,-,N/A,,Clear,180,2014-03-04 04:35:00
10:55 PM,12.2,3.2,67,30.33,10.0,South,4.6,-,N/A,,Clear,180,2014-03-04 04:55:00
11:15 PM,12.2,3.2,67,30.31,10.0,South,4.6,-,N/A,,Clear,170,2014-03-04 05:15:00
11:35 PM,12.2,3.2,67,30.30,10.0,SE,3.5,-,N/A,,Clear,140,2014-03-04 05:35:00
11:55 PM,12.2,3.2,67,30.29,10.0,SSE,4.6,-,N/A,,Clear,150,2014-03-04 05:55:00